Location: Leo
(52.0556°N, 112.3605°W)
Time: 08:10:24
(UTC+00:00)

FO-29 - Pass Details

Date: 08 December 2023
Orbit: 799 x 1322 km, 98.6° (Epoch: 04 March)

Event Time Altitude Azimuth Distance (km) Brightness Sun altitude
Rises 09:55:31 0° 16° (NNE) 4,172 13.2 -48.4°
Reaches altitude 10° 09:58:14 10° 22° (NNE) 3,253 12.6 -48.0°
Enters shadow 10:01:27 27° 35° (NE) 2,274 11.6 -47.6°
